www.pogodaiklimat.ru

Погода и климат >> Архив погоды >> Германия >> Маяк Alte Weser


ПОГОДА на Маяке Alte Weser

  • Прогноз погоды на Маяке Alte Weser
  • Монитор погоды на Маяке Alte Weser

АРХИВ ПОГОДЫ на Маяке Alte Weser

Время (UTC), дата Ветер
(напр.,м/с)
 
Видим.   Явления Облачность Т
(С)
Тd
(С)
f
(%)
Тe
(С)
Тes
(С)
Комфортность P
(гПа)
Po
(гПа)
Тmin
(С)
Tmax
(С)
R
(мм)
R24
(мм)
S
(см)
16 17.03 З 20
{23}
н/о н/о +6.6 +2.1 73 -1 -1 998.2 994.5
17 17.03 З 19
{23}
н/о н/о +6.1 +1.6 73 -1 -1 998.8 995.1
18 17.03 З 18
{24}
н/о н/о +6.0 +1.3 72 -1 -1 999.6 995.8 +5.7 +6.8
19 17.03 З 17
{25}
н/о н/о +6.2 +2.7 78 -1 -1 1000.1 996.4
20 17.03 ЮЗ 18
{23}
н/о н/о +6.6 +2.5 75 -1 -1 1000.1 996.3
21 17.03 ЮЗ 18
{25}
н/о н/о +6.5 +3.2 79 -1 -1 1000.1 996.3
22 17.03 З 20
{26}
н/о н/о +4.2 +3.3 94 -5 -5 1000.6 996.8
23 17.03 ЮЗ 18
{26}
н/о н/о +5.5 +3.7 88 -2 -2 1000.8 997.0
00 18.03 З 16
{26}
н/о н/о +5.0 +2.0 81 -3 -3 1001.1 997.3
01 18.03 З 16
{21}
н/о н/о +6.5 +2.9 78 -1 -1 1001.5 997.8
02 18.03 З 15
{21}
н/о н/о +6.4 +3.2 80 -1 -1 1002.1 998.3
03 18.03 З 17
{22}
н/о н/о +6.4 +2.1 74 -1 -1 1002.7 998.9
04 18.03 З 18
{22}
н/о н/о +6.0 +2.7 79 -2 -2 1003.4 999.6
05 18.03 З 18
{22}
н/о н/о +6.3 +2.8 78 -1 -1 1003.9 1000.1
06 18.03 З 20
{23}
н/о н/о +6.2 +2.1 75 -2 -2 1004.7 1001.0 +3.9 +6.7
07 18.03 З 21
{27}
н/о н/о +4.9 +1.0 76 -4 -4 1005.9 1002.1
08 18.03 З 17
{24}
н/о н/о +5.8 +2.3 78 -2 -2 1006.6 1002.8
09 18.03 З 16
{27}
н/о н/о +6.2 +2.3 76 -1 -1 1008.0 1004.2
10 18.03 З 18
{22}
н/о н/о +6.3 +2.6 77 -1 -1 1009.1 1005.3
11 18.03 З 17
{22}
н/о н/о +6.5 +2.6 76 -1 -1 1010.1 1006.3
12 18.03 СЗ 15
{27}
н/о н/о +5.0 +0.7 74 -2 -2 1011.2 1007.4
13 18.03 З 19
{22}
н/о н/о +6.5 +2.2 74 -1 -1 1011.3 1007.5
14 18.03 З 17
{21}
н/о н/о +6.4 +2.6 77 -1 -1 1012.2 1008.4
15 18.03 З 16
{23}
н/о н/о +6.6 +2.8 77 -0 -0 1013.4 1009.6
16 18.03 З 16
{21}
н/о н/о +6.5 +2.5 76 -1 -1 1014.4 1010.6
17 18.03 З 14
{22}
н/о н/о +6.1 +0.8 69 -1 -1 1015.3 1011.5
18 18.03 СЗ 12
{23}
н/о н/о +4.0 +3.1 94 -4 -4 1016.6 1012.7 +3.8 +6.7
19 18.03 СЗ 13
{16}
н/о н/о +6.1 +2.4 77 -1 -1 1017.3 1013.4
20 18.03 З 15
{17}
н/о н/о +5.0 +2.1 81 -3 -3 1018.0 1014.1
21 18.03 СЗ 10
{18}
н/о н/о +4.7 +2.4 85 -2 -2 1018.9 1015.1
22 18.03 СЗ 11
{16}
н/о н/о +5.7 +2.9 82 -1 -1 1019.5 1015.6
23 18.03 СЗ 12
{14}
н/о н/о +6.2 +2.8 79 -0 -0 1019.7 1015.9
00 19.03 СЗ 12
{18}
н/о н/о +6.2 +1.2 70 0 0 1020.3 1016.5
01 19.03 СЗ 10
{14}
н/о н/о +5.9 +2.4 78 -0 -0 1020.9 1017.1
02 19.03 СЗ 10
{16}
н/о н/о +4.7 +2.5 86 -2 -2 1021.4 1017.5
03 19.03 СЗ 10
{17}
н/о н/о +4.9 +2.3 83 -2 -2 1021.8 1017.9
04 19.03 СЗ 10
{18}
н/о н/о +5.5 +2.2 79 -1 -1 1022.2 1018.3
05 19.03 СЗ 11
{13}
н/о н/о +5.8 +2.0 77 -1 -1 1022.9 1019.0
06 19.03 СЗ 11
{18}
н/о н/о +5.9 +2.3 78 -0 -0 1023.5 1019.6 +3.8 +6.4
07 19.03 СЗ 10
{13}
н/о н/о +5.9 +2.2 77 -0 -0 1024.1 1020.3
08 19.03 СЗ 9 н/о н/о +5.9 +1.6 74 0 0 1024.7 1020.9
09 19.03 СЗ 9
{13}
н/о н/о +6.0 +2.3 77 0 0 1025.7 1021.8
10 19.03 СЗ 9 н/о н/о +6.1 +2.0 75 +1 +1 1026.4 1022.6
11 19.03 З 6 н/о н/о +6.1 +1.5 72 +2 +2 1026.9 1023.0
12 19.03 СЗ 8
{13}
н/о н/о +5.9 +0.9 70 +1 +1 1027.4 1023.6
13 19.03 СЗ 7 н/о н/о +6.6 +1.2 68 +2 +2 1027.5 1023.7
14 19.03 СЗ 7 н/о н/о +6.5 +2.4 75 +2 +2 1027.6 1023.8
15 19.03 З 6 н/о н/о +6.6 +2.2 73 +2 +2 1028.1 1024.2
16 19.03 З 5 н/о н/о +6.7 +1.4 69 +3 +3 1028.1 1024.2
17 19.03 З 3 н/о н/о +6.5 +1.3 69 +4 +4 1028.3 1024.4
18 19.03 З 2 н/о н/о +6.2 +1.0 69 +4 +4 1028.6 1024.7 +5.6 +6.7
19 19.03 ЮЗ 1 н/о н/о +6.1 +1.8 74 +5 +5 1028.9 1025.1
20 19.03 Ю 1 н/о н/о +6.1 +2.2 76 +5 +5 1029.4 1025.5
21 19.03 Ю 5 н/о н/о +6.1 +2.3 77 +2 +2 1029.1 1025.2
22 19.03 Ю 6 н/о н/о +6.1 +2.9 80 +1 +1 1029.2 1025.3
23 19.03 Ю 7 н/о н/о +6.0 +3.8 86 +1 +1 1029.3 1025.4
00 20.03 Ю 8 н/о н/о +6.3 +3.1 80 +1 +1 1028.9 1025.0
01 20.03 ЮЗ 8 н/о н/о +6.4 +3.0 79 +1 +1 1028.9 1025.0
02 20.03 ЮЗ 8 н/о н/о +6.3 +3.3 81 +1 +1 1028.4 1024.6
03 20.03 ЮЗ 9 н/о н/о +6.1 +3.6 84 0 0 1028.2 1024.3
04 20.03 ЮЗ 8 н/о н/о +5.7 +3.9 88 0 0 1028.2 1024.3
05 20.03 ЮЗ 10 н/о н/о +6.2 +4.2 87 0 0 1028.1 1024.2
06 20.03 ЮЗ 10 н/о н/о +6.2 +4.6 89 0 0 1028.2 1024.3 +5.7 +6.6
07 20.03 ЮЗ 9 н/о н/о +6.3 +5.4 94 0 0 1028.8 1024.9
08 20.03 ЮЗ 9 н/о н/о +6.4 +6.0 97 +1 +1 1028.9 1025.1
09 20.03 ЮЗ 9 н/о н/о +7.2 +6.8 97 +2 +2 1029.3 1025.5
10 20.03 ЮЗ 10 н/о н/о +7.4 +7.4 100 +2 +2 1029.7 1025.8
11 20.03 ЮЗ 9 н/о н/о +7.6 +7.6 100 +2 +2 1030.4 1026.5
12 20.03 ЮЗ 9 н/о н/о +7.8 +7.8 100 +2 +2 1030.6 1026.8
13 20.03 ЮЗ 9 н/о н/о +8.0 +8.0 100 +3 +3 1030.5 1026.7
14 20.03 З 9 н/о н/о +8.0 +8.0 100 +3 +3 1030.7 1026.8
15 20.03 З 9 н/о н/о +8.2 +8.2 100 +3 +3 1030.7 1026.8
16 20.03 З 10 н/о н/о +8.3 +8.3 100 +3 +3 1030.9 1027.0
17 20.03 З 9 н/о н/о +7.9 +7.9 100 +3 +3 1031.2 1027.3
18 20.03 З 10
{13}
н/о н/о +8.4 +7.9 97 +3 +3 1031.4 1027.6 +6.1 +8.4
19 20.03 З 8 н/о н/о +8.0 +7.9 99 +3 +3 1031.9 1028.0
20 20.03 ЮЗ 6 н/о н/о +8.7 +8.6 99 +5 +5 1032.3 1028.4
21 20.03 ЮЗ 5
{13}
н/о н/о +8.9 +8.9 100 +5 +5 1032.4 1028.5
22 20.03 ЮЗ 7 н/о н/о +9.0 +8.7 98 +5 +5 1032.4 1028.5
23 20.03 ЮЗ 8 н/о н/о +9.3 +8.6 95 +5 +5 1032.3 1028.5
00 21.03 ЮЗ 7
{13}
н/о н/о +8.6 +8.6 100 +4 +4 1032.4 1028.5
01 21.03 ЮЗ 9 н/о н/о +7.9 +7.8 99 +3 +3 1032.4 1028.5
02 21.03 З 10
{13}
н/о н/о +7.1 +7.1 100 +1 +1 1032.1 1028.2
03 21.03 З 10
{13}
н/о н/о +7.2 +7.2 100 +1 +1 1031.9 1028.0
04 21.03 ЮЗ 11
{13}
н/о н/о +7.1 +7.1 100 +1 +1 1031.7 1027.8
05 21.03 ЮЗ 9 н/о н/о +7.4 +7.4 100 +2 +2 1031.5 1027.6
06 21.03 ЮЗ 9
{13}
н/о н/о +7.7 +7.7 100 +2 +2 1031.4 1027.5 +7.1 +9.5
07 21.03 ЮЗ 9 н/о н/о +7.8 +7.8 100 +2 +2 1031.9 1028.0
08 21.03 ЮЗ 10 н/о н/о +8.6 +8.1 97 +3 +3 1032.1 1028.2
09 21.03 ЮЗ 10 н/о н/о +8.8 +8.0 95 +4 +4 1032.6 1028.8
10 21.03 ЮЗ 10 н/о н/о +8.8 +7.9 94 +4 +4 1032.7 1028.8
11 21.03 ЮЗ 10 н/о н/о +9.5 +8.1 91 +5 +5 1032.7 1028.8
12 21.03 ЮЗ 11 н/о н/о +10.0 +8.0 87 +5 +5 1032.4 1028.6
13 21.03 З 10 н/о н/о +9.6 +7.8 89 +5 +5 1032.8 1028.9
14 21.03 З 10 н/о н/о +9.3 +7.7 90 +4 +4 1032.6 1028.8
15 21.03 З 9 н/о н/о +9.4 +7.6 89 +5 +5 1032.6 1028.8
16 21.03 З 10 н/о н/о +8.9 +7.6 92 +4 +4 1032.7 1028.8
19 21.03 З 7 н/о н/о +8.3 +7.3 93 +4 +4 1033.0 1029.1
21 21.03 З 6 н/о н/о +7.7 +7.7 100 +3 +3 1033.5 1029.6
22 21.03 З 6 н/о н/о +7.4 +7.4 100 +3 +3 1033.4 1029.5
23 21.03 З 5 н/о н/о +7.4 +5 +5 1033.4 1029.5
00 22.03 ЮЗ 6 н/о н/о +7.4 +7.4 100 +3 +3 1032.7 1028.8
01 22.03 ЮЗ 5 н/о н/о +7.6 +7.6 100 +3 +3 1032.9 1029.1
02 22.03 ЮЗ 4 н/о н/о +7.4 +7.4 100 +4 +4 1032.8 1028.9
03 22.03 Ю 3 н/о н/о +7.1 +7.1 100 +4 +4 1032.5 1028.6
04 22.03 Ю 3 н/о н/о +7.0 +7.0 100 +4 +4 1032.3 1028.4
05 22.03 Ю 4 н/о н/о +7.1 +7.0 99 +3 +3 1032.2 1028.4
06 22.03 Ю 4 н/о н/о +7.4 +7.2 99 +4 +4 1032.4 1028.5 +6.9 +8.6
07 22.03 Ю 4 н/о н/о +7.7 +7.7 100 +4 +4 1032.9 1029.0
08 22.03 Ю 4 н/о н/о +7.7 +7.7 100 +4 +4 1032.6 1028.7
09 22.03 Ю 5 н/о н/о +7.6 +7.7 100 +3 +3 1032.2 1028.3
10 22.03 Ю 8 н/о н/о +7.9 +7.9 100 +3 +3 1031.5 1027.7
11 22.03 Ю 6 н/о н/о +8.3 +8.2 99 +4 +4 1030.9 1027.0
12 22.03 Ю 5 н/о н/о +10.1 +8.2 88 +7 +7 1030.1 1026.3
13 22.03 ЮВ 4 н/о н/о +11.9 +8.9 82 +10 +10 1029.3 1025.5
14 22.03 ЮВ 5 н/о н/о +13.8 +9.1 73 +12 +12 1028.3 1024.5
15 22.03 Ю 7 н/о н/о +14.2 +9.4 73 +12 +12 1027.3 1023.5
16 22.03 Ю 7 н/о н/о +15.5 +10.2 71 +14 +14 1026.4 1022.6
17 22.03 Ю 6 н/о н/о +16.0 +10.2 68 +15 +15 1026.3 1022.5
18 22.03 Ю 6 н/о н/о +16.2 +8.8 62 +15 +15 1025.8 1022.0 +7.0 +16.2
19 22.03 Ю 5 н/о н/о +15.8 +8.6 62 +15 +15 1026.0 1022.2
20 22.03 ЮЗ 3 н/о н/о +14.1 +9.3 73 +13 +13 1025.7 1021.9
21 22.03 ЮЗ 5 н/о н/о +13.7 +8.6 71 +12 +12 1025.4 1021.7
22 22.03 СЗ 9 н/о н/о +5.2 +5.3 100 -1 -1 1025.8 1021.9
23 22.03 СЗ 9
{13}
н/о н/о +6.1 +2 +2 1026.1 1022.2
00 23.03 СЗ 8
{13}
н/о н/о +6.3 +6.3 100 +1 +1 1026.4 1022.5
01 23.03 З 5 н/о н/о +6.4 +5.9 97 +2 +2 1026.0 1022.1
02 23.03 З 5 н/о н/о +6.7 +6.1 96 +2 +2 1025.8 1022.0
03 23.03 ЮЗ 6 н/о н/о +6.8 +6.3 97 +2 +2 1025.6 1021.7
04 23.03 ЮЗ 6 н/о н/о +6.9 +6.5 97 +2 +2 1025.8 1022.0
05 23.03 ЮЗ 7 н/о н/о +6.6 +6.6 100 +1 +1 1025.9 1022.0
06 23.03 ЮЗ 7 н/о н/о +6.5 +6.5 100 +1 +1 1026.4 1022.6 +5.1 +16.2
07 23.03 ЮЗ 7 н/о н/о +6.4 +6.4 100 +1 +1 1026.8 1022.9
08 23.03 З 7 н/о н/о +7.1 +7.1 100 +2 +2 1027.2 1023.4
09 23.03 З 7 н/о н/о +7.4 +7.3 99 +2 +2 1027.5 1023.7
10 23.03 СЗ 7 н/о н/о +7.5 +6.7 95 +3 +3 1028.2 1024.4
11 23.03 СЗ 7 н/о н/о +7.4 +5.7 89 +3 +3 1028.9 1025.0
12 23.03 СЗ 7 н/о н/о +7.4 +6.1 91 +3 +3 1029.5 1025.6
13 23.03 СЗ 7 н/о н/о +7.2 +5.1 86 +2 +2 1030.1 1026.2
14 23.03 СЗ 7 н/о н/о +7.1 +5.4 89 +2 +2 1030.2 1026.3
15 23.03 СЗ 7 н/о н/о +7.1 +5.3 88 +2 +2 1030.4 1026.6
16 23.03 СЗ 7 н/о н/о +7.0 +4.9 86 +2 +2 1030.8 1026.9
17 23.03 СЗ 6 н/о н/о +6.9 +5.0 88 +2 +2 1031.1 1027.2
18 23.03 СЗ 6 н/о н/о +6.6 +4.4 86 +2 +2 1031.1 1027.2 +6.3 +8.1
19 23.03 СЗ 5 н/о н/о +6.6 +4.8 88 +2 +2 1031.5 1027.6
20 23.03 СЗ 5 н/о н/о +6.5 +4.4 86 +2 +2 1031.7 1027.8
21 23.03 СЗ 5 н/о н/о +6.4 +4.0 85 +2 +2 1031.9 1028.0
22 23.03 СЗ 5 н/о н/о +6.3 +4.1 86 +2 +2 1031.6 1027.7
23 23.03 СЗ 5 н/о н/о +6.3 +4.4 88 +2 +2 1031.4 1027.6
00 24.03 СЗ 4 н/о н/о +6.2 +4.1 86 +2 +2 1031.0 1027.1
01 24.03 СЗ 3 н/о н/о +6.1 +4.1 87 +3 +3 1030.9 1027.0
02 24.03 С 4 н/о н/о +6.0 +4.2 88 +2 +2 1030.5 1026.6
03 24.03 СЗ 3 н/о н/о +6.0 +4.2 88 +3 +3 1030.2 1026.4
04 24.03 СЗ 2 н/о н/о +5.9 +4.2 89 +3 +3 1029.8 1025.9
05 24.03 С 2 н/о н/о +5.9 +4.1 88 +3 +3 1029.6 1025.7
06 24.03 С 2 н/о н/о +5.8 +3.7 86 +3 +3 1029.0 1025.1 +5.8 +6.9
07 24.03 С 1 н/о н/о +5.9 +3.9 87 +5 +5 1029.0 1025.1
08 24.03 Ю 1 н/о н/о +5.9 +3.5 85 +5 +5 1028.8 1024.9
09 24.03 ЮЗ 3 н/о н/о +5.9 +3.2 83 +3 +3 1028.1 1024.2
10 24.03 З 5 н/о н/о +5.9 +3.7 86 +1 +1 1027.9 1024.0
11 24.03 З 5 н/о н/о +6.2 +2.9 79 +2 +2 1027.2 1023.3
12 24.03 З 6 н/о н/о +6.3 +2.8 78 +2 +2 1026.5 1022.6
13 24.03 З 9 н/о н/о +6.5 +3.2 79 +1 +1 1026.0 1022.2
14 24.03 З 8 н/о н/о +6.4 +2.5 76 +1 +1 1025.0 1021.1
15 24.03 З 9 н/о н/о +6.3 +2.5 77 +1 +1 1024.3 1020.4
16 24.03 З 9 н/о н/о +6.3 +2.7 78 +1 +1 1023.4 1019.5

 

Местоположение метеостанции Маяк Alte Weser (Германия): широта 53.87 долгота 8.13 высота над уровнем моря 32 м.

В архиве по умолчанию представлена погода на Маяке Alte Weser за последнюю неделю. Архивные данные за месяц целиком и за предыдущие месяцы, начиная с января 2011 года, Вы можете получить, выбрав интересующий диапазон дат из раскрывающегося списка и нажав кнопку "Ввод!".


*Определитесь, кто Вы:
робот инопланетянин человек

Внимание! Время в таблицах - всемирное. Для получения местного времени необходимо прибавить поправку, которая равна 1 ч.

Смотрите также архив погоды в соседних городах и на ближайших метеорологических станциях:

Погода в Нордхольце (Германия) (37 км)
Погода в Куксхавене (Германия) (37 км)
Погода в Гельголанде (Германия) (38 км)
Погода на Базе ВВС Wittmundhaven (Германия) (47 км)
Погода в Бремерхафене (Германия) (48 км)
Погода на Станции Ufs Deutsche Bucht (Германия) (57 км)
Погода в Санкт-Петер-Ординге (Германия) (60 км)
Погода в Эльперсбюттеле (Германия) (62 км)
Погода на Острове Норденей (Германия) (67 км)
Погода в Бремерфёрде (Германия) (80 км)

Пояснения к столбцам:

Ветер - указаны скорость ветра в м/с - средняя за 10 мин, порывы в срок и между сроками (в фигурных скобках) и направление, откуда дует ветер: С - северный, СВ - северо-восточный, В - восточный, ЮВ - юго-восточный, Ю - южный, ЮЗ - юго-западный, З - западный, СЗ - северо-западный.
Видимость - горизонтальная дальность видимости в метрах или километрах. При видимости от 1 до 10 км при отсутствии осадков обычно наблюдается дымка, при ухудшении видимости до 1 км и менее - туман. В сухую погоду видимость может ухудшаться дымом, пылью или мглою.
Явления - указаны атмосферные явления, наблюдавшиеся в срок или в последний час перед сроком; фигурными скобками обозначены явления, наблюдавшиеся между сроками (за 1-3 часа до срока); квадратными скобками обозначены град или гололедные отложения с указанием их диаметра в мм.
Облачность - указаны через наклонную черту общая и нижняя облачность в баллах и высота нижней границы облаков в метрах; квадратными скобками обозначены формы облаков: Ci - перистые, Cs - перисто-слоистые, Cc - перисто-кучевые, Ac - высококучевые, As - высокослоистые, Sc - слоисто-кучевые, Ns - слоисто-дождевые, Cu - кучевые, Cb - кучево-дождевые. Подробнее классификацию облаков см. в Атласе облаков (PDF).
T - Температура воздуха - температура, измеренная на высоте 2 м над землей.
Td - Температура точки росы - температура, при понижении до которой содержащийся в воздухе водяной пар достигнет насыщения.
f - Относительная влажность воздуха - влажноcть воздуха, измеренная на высоте 2 м над землей.
Te - Эффективная температура - температура, которую ощущает одетый по сезону человек в тени. Характеристика душности погоды. При расчете учитывается влияние влажности воздуха и скорости ветра на теплоощущения человека.
Tes - Эффективная температура на солнце - температура, которую ощущает человек, с поправкой на солнечный нагрев. Характеристика знойности погоды. Зависит от высоты солнца над горизонтом, облачности и скорости ветра. Ночью, в пасмурную погоду, а также при ветре 12 м/с и более поправка равна нулю.
P - Атмосферное давление - приведенное к уровню моря атмосферное давление.
Po - Атмосферное давление - измеренное на уровне метеостанции атмосферное давление.
Tmin - Минимальная температура - минимум температуры воздуха на высоте 2 м над землей.
Tmax - Максимальная температура - максимум температуры воздуха на высоте 2 м над землей.
R - Количество осадков - Количество выпавших осадков за период времени, мм. При наведении курсора мыши на число - период времени, за который выпало указанное количество осадков.
R24 - Количество осадков - Количество выпавших осадков за 24 часа, мм.
S - Снежный покров - Высота снежного покрова, см. При наведении курсора мыши на число - состояние снежного покрова и степень покрытия местности в баллах.